COSMOS 1833

Last updated on Sun Apr 12 2026 00:02:16 GMT+0000 (Coordinated Universal Time)

1 17589U 87027A 26101.42365976 -.00000301 00000+0 -13536-3 0 9992 2 17589 70.9162 257.2116 0022693 164.9376 195.2426 14.13040512 14947
UTC large
Height (km)
Speed (km/s)
/
Latitude / Longitude
Inclination (degrees)
Orbital Period (minutes)
Azimuth
Elevation
Range (km)
Doppler Factor

Next 0 passes for location: London (51.5072 / 0.1276)

Sorry there are no passes over London.
COSMOS 1833